Showing default

AISSAT 4, 68454

Orbit data source: Space-Track

AISSAT 4, 68454 is a Norwegian payload satellite in SSO that was launched on Mon, 30 Mar 2026 UTC via an FALCON 9 launch vehicle from the Air Force Western Test Range (AFWTR). Payload-class satellites include a variety of spacecraft equipped with specific instruments for various scientific and technological missions. These include communications satellites like Starlink; space stations such as the ISS; scientific satellites like the Hubble; Earth observation satellites from companies like Planet Labs, Umbra, and HawkEye 360; GPS; miniature CubeSats for education and research; and military/defense satellites.

Loading next visibility...
Identifier
68454, 2026-067AQ
Orbit
SSO
Country
Flag of NONO / NOR
Related business
None
Manufacturer
UTIAS-SFL
Mission
Operational spacecraft
Bus & Motor
CUBESAT 6U, Unknown motor
Mass
12 kg wet, 12 kg dry
Launch date (UTC)
2026-03-30 (3 months ago)
Launch vehicle
FALCON 9
Launch site
Air Force Western Test Range (AFWTR)
Object type
Payload
Rocket body
Debris
Shape & HBR
Unknown shape, 0.2 m
Radar Cross Section
Medium (>0.1 m² and <1 m²)

Expand to show TLE details & history
Last TLE update: 12 hours ago

TLE from 12 hours ago
0 AISSAT 4
1 68454U 26067AQ  26174.63943836  .00004409  00000-0  22098-3 0  9991
2 68454  97.4569 132.9550 0006919  56.3049 303.8843 15.17851092 12917
Epoch: 2026-06-23T15:20Z
TLE epoch observation values (Epoch: 2026-06-23T15:20:47.474Z)
Latitude
-0.00007°
Longitude
-9.05091°
Altitude
512.766 km
Speed
7.609 km/s
True Right ascension
08h 51m 49s
True Declination
0° 00' 00"
Sunlit
Object was in daylight at epoch
Visualization orbit readout
Latitude
Unknown
Longitude
Unknown
Altitude
Unknown
Speed
Unknown
Apparent Right ascension
Unknown
Apparent Declination
Unknown
Sunlit
N/A
Visualization observer readout
Local Sidereal Time
14:52:46
Azimuth
Unknown
Elevation
Unknown
Doppler factor
Unknown
Orbital elements
Apogee altitude
514.073 km
Perigee altitude
504.542 km
Semi-major axis
6,887.444 km
Eccentricity
0.00069
Inclination
97.4569°
RAAN
132.955°
Arg. of periapsis
56.3049°
True anomaly
303.81845°
Mean anomaly
303.8843°
Eccentric anomaly
303.85138°
Mean motion
3.79713 °/min
Orbital period
94.81 mins
BSTAR
0.00022098
Loading maneuver chart data...
Computing Atmospheric mass density...
Loading historical data...
Loading historical data...
Loading historical data...
Loading historical data...
Loading historical data...
Loading historical data...
Loading historical data...

Documentation

Showing up to 5 results
|